timestamp,wind_dir_avg,wind_spd_avg,wind_spd_max_dir,wind_spd_gust,battery_voltage,lat,long
2022-08-19 00:04:01+00:00,38.0,4.62,36.0,5.16,12.41,47.59359,-54.27349
2022-08-19 00:14:01+00:00,43.0,5.02,44.0,5.76,12.41,47.59359,-54.27349
2022-08-19 00:24:01+00:00,54.0,4.82,56.0,5.31,12.41,47.59359,-54.27349
2022-08-19 00:34:01+00:00,50.0,4.77,52.0,5.41,12.41,47.59359,-54.27349
2022-08-19 00:44:01+00:00,47.0,4.72,44.0,5.19,12.41,47.59359,-54.27349
2022-08-19 00:54:01+00:00,40.0,4.32,45.0,4.92,12.41,47.59359,-54.27349
2022-08-19 01:04:01+00:00,45.0,4.99,45.0,5.47,12.41,47.59359,-54.27349
2022-08-19 01:14:01+00:00,46.0,4.4,58.0,5.94,12.41,47.59359,-54.27349
2022-08-19 01:24:01+00:00,42.0,4.29,42.0,4.65,12.41,47.59359,-54.27349
2022-08-19 01:34:01+00:00,44.0,4.56,45.0,4.98,12.41,47.59359,-54.27349
2022-08-19 01:44:01+00:00,50.0,4.3,49.0,4.71,12.41,47.59359,-54.27349
2022-08-19 01:54:01+00:00,54.0,4.05,53.0,4.35,12.41,47.59359,-54.27349
2022-08-19 02:04:01+00:00,59.0,3.78,56.0,4.12,12.41,47.59359,-54.27349
2022-08-19 02:14:00+00:00,52.0,3.84,52.0,4.14,12.33,47.59359,-54.27349
2022-08-19 02:24:00+00:00,56.0,3.52,56.0,4.02,12.33,47.59359,-54.27349
2022-08-19 02:34:00+00:00,65.0,3.31,70.0,4.86,12.33,47.59359,-54.27349
2022-08-19 02:44:00+00:00,58.0,3.34,63.0,4.47,12.33,47.59359,-54.27349
2022-08-19 02:54:00+00:00,51.0,3.08,63.0,4.22,12.33,47.59359,-54.27349
2022-08-19 03:04:00+00:00,34.0,3.29,39.0,3.57,12.33,47.59359,-54.27349
2022-08-19 03:14:00+00:00,36.0,3.23,45.0,3.91,12.33,47.59359,-54.27349
2022-08-19 03:24:00+00:00,54.0,2.68,66.0,3.28,12.33,47.59359,-54.27349
2022-08-19 03:34:00+00:00,43.0,2.92,54.0,3.82,12.33,47.59359,-54.27349
2022-08-19 03:44:00+00:00,40.0,3.01,46.0,3.4,12.33,47.59359,-54.27349
2022-08-19 03:54:00+00:00,27.0,3.01,31.0,3.27,12.33,47.59359,-54.27349
2022-08-19 04:04:00+00:00,30.0,3.34,35.0,3.6,12.33,47.59359,-54.27349
2022-08-19 04:14:01+00:00,34.0,3.45,43.0,4.16,12.33,47.59359,-54.27349
2022-08-19 04:24:01+00:00,32.0,4.5,34.0,5.46,12.33,47.59359,-54.27349
2022-08-19 04:34:01+00:00,30.0,3.83,43.0,4.53,12.33,47.59359,-54.27349
2022-08-19 04:44:01+00:00,23.0,3.04,42.0,3.69,12.33,47.59359,-54.27349
2022-08-19 04:54:01+00:00,34.0,4.15,43.0,4.78,12.33,47.59359,-54.27349
2022-08-19 05:04:01+00:00,37.0,3.93,41.0,4.55,12.33,47.59359,-54.27349
2022-08-19 05:14:00+00:00,36.0,3.76,40.0,4.24,12.25,47.59359,-54.27349
2022-08-19 05:24:00+00:00,28.0,3.07,32.0,3.41,12.25,47.59359,-54.27349
2022-08-19 05:34:00+00:00,44.0,2.83,61.0,4.13,12.25,47.59359,-54.27349
2022-08-19 05:44:00+00:00,73.0,2.31,76.0,3.05,12.25,47.59359,-54.27349
2022-08-19 05:54:00+00:00,103.0,1.24,106.0,1.52,12.25,47.59359,-54.27349
2022-08-19 06:04:00+00:00,90.0,2.15,91.0,3.59,12.25,47.59359,-54.27349
2022-08-19 06:14:00+00:00,118.0,1.48,115.0,2.26,12.25,47.59359,-54.27349
2022-08-19 06:24:00+00:00,107.0,2.37,99.0,4.52,12.25,47.59359,-54.27349
2022-08-19 06:34:00+00:00,141.0,2.34,138.0,2.56,12.25,47.59359,-54.27349
2022-08-19 06:44:00+00:00,315.0,0.01,146.0,0.0,12.25,47.59359,-54.27349
2022-08-19 06:54:00+00:00,207.0,2.92,209.0,3.11,12.25,47.59359,-54.27349
2022-08-19 07:04:00+00:00,190.0,2.39,203.0,2.58,12.25,47.59359,-54.27349
2022-08-19 07:14:00+00:00,204.0,2.56,214.0,2.73,12.25,47.59359,-54.27349
2022-08-19 07:24:00+00:00,177.0,2.72,179.0,2.77,12.25,47.59359,-54.27349
2022-08-19 07:34:00+00:00,167.0,2.63,167.0,2.74,12.25,47.59359,-54.27349
2022-08-19 07:44:00+00:00,188.0,2.47,191.0,2.58,12.25,47.59359,-54.27349
2022-08-19 07:54:00+00:00,200.0,1.67,202.0,1.99,12.25,47.59359,-54.27349
2022-08-19 08:04:00+00:00,260.0,2.9,262.0,3.84,12.25,47.59359,-54.27349
2022-08-19 08:14:01+00:00,269.0,2.04,270.0,4.23,12.25,47.59359,-54.27349
2022-08-19 08:24:01+00:00,267.0,4.42,268.0,5.45,12.25,47.59359,-54.27349
2022-08-19 08:34:01+00:00,290.0,0.34,280.0,0.59,12.25,47.59359,-54.27349
2022-08-19 08:44:01+00:00,261.0,2.2,265.0,3.59,12.25,47.59359,-54.27349
2022-08-19 08:54:01+00:00,290.0,0.2,280.0,0.5,12.25,47.59359,-54.27349
2022-08-19 09:04:01+00:00,300.0,1.22,283.0,2.8,12.25,47.59359,-54.27349
2022-08-19 09:14:00+00:00,64.0,5.05,66.0,5.62,12.17,47.59359,-54.27349
2022-08-19 09:24:00+00:00,0.0,2.68,1.0,2.79,12.17,47.59359,-54.27349
2022-08-19 09:34:00+00:00,0.0,2.87,1.0,2.99,12.17,47.59359,-54.27349
2022-08-19 09:44:00+00:00,27.0,2.56,58.0,4.49,12.17,47.59359,-54.27349
2022-08-19 09:54:00+00:00,79.0,5.25,79.0,5.76,12.17,47.59359,-54.27349
2022-08-19 10:04:00+00:00,97.0,5.35,95.0,5.63,12.17,47.59359,-54.27349
2022-08-19 10:14:01+00:00,105.0,2.12,98.0,3.86,12.41,47.59359,-54.27349
2022-08-19 10:24:01+00:00,109.0,3.36,105.0,4.6,12.41,47.59359,-54.27349
2022-08-19 10:34:01+00:00,183.0,1.85,181.0,1.94,12.41,47.59359,-54.27349
2022-08-19 10:44:01+00:00,179.0,2.27,180.0,2.31,12.41,47.59359,-54.27349
2022-08-19 10:54:01+00:00,246.0,4.55,248.0,5.1,12.41,47.59359,-54.27349
2022-08-19 11:04:01+00:00,236.0,4.42,241.0,5.47,12.41,47.59359,-54.27349
2022-08-19 11:14:01+00:00,244.0,5.62,248.0,6.13,13.29,47.59359,-54.27349
2022-08-19 11:24:01+00:00,249.0,6.11,250.0,6.51,13.29,47.59359,-54.27349
2022-08-19 11:34:01+00:00,246.0,5.97,247.0,6.36,13.29,47.59359,-54.27349
2022-08-19 11:44:01+00:00,249.0,5.9,249.0,6.31,13.29,47.59359,-54.27349
2022-08-19 11:54:01+00:00,236.0,5.27,245.0,7.09,13.29,47.59359,-54.27349
2022-08-19 12:04:01+00:00,239.0,5.9,245.0,6.94,13.29,47.59359,-54.27349
2022-08-19 12:14:00+00:00,226.0,5.93,236.0,7.19,13.53,47.59359,-54.27349
2022-08-19 12:24:00+00:00,213.0,5.87,211.0,6.56,13.53,47.59359,-54.27349
2022-08-19 12:34:00+00:00,211.0,6.23,214.0,6.89,13.53,47.59359,-54.27349
2022-08-19 12:44:00+00:00,210.0,7.12,210.0,8.06,13.53,47.59359,-54.27349
2022-08-19 12:54:00+00:00,208.0,6.77,209.0,7.26,13.53,47.59359,-54.27349
2022-08-19 13:04:00+00:00,209.0,6.39,213.0,7.09,13.53,47.59359,-54.27349
2022-08-19 13:14:00+00:00,209.0,7.06,210.0,7.71,14.08,47.59359,-54.27349
2022-08-19 13:24:00+00:00,208.0,7.42,219.0,8.45,14.08,47.59359,-54.27349
2022-08-19 13:34:00+00:00,211.0,7.23,206.0,8.12,14.08,47.59359,-54.27349
2022-08-19 13:44:00+00:00,211.0,6.8,215.0,7.45,14.08,47.59359,-54.27349
2022-08-19 13:54:00+00:00,211.0,7.72,214.0,8.48,14.08,47.59359,-54.27349
2022-08-19 14:04:00+00:00,214.0,7.61,213.0,8.67,14.08,47.59359,-54.27349
2022-08-19 14:14:00+00:00,214.0,7.93,212.0,9.05,13.6,47.59359,-54.27349
2022-08-19 14:24:00+00:00,215.0,7.27,215.0,9.11,13.6,47.59359,-54.27349
2022-08-19 14:34:00+00:00,231.0,7.19,236.0,8.18,13.6,47.59359,-54.27349
2022-08-19 14:44:00+00:00,247.0,6.72,237.0,8.25,13.6,47.59359,-54.27349
2022-08-19 14:54:00+00:00,230.0,6.21,229.0,6.93,13.6,47.59359,-54.27349
2022-08-19 15:04:00+00:00,233.0,7.18,231.0,8.3,13.6,47.59359,-54.27349
2022-08-19 15:14:00+00:00,230.0,7.41,231.0,9.05,14.08,47.59359,-54.27349
2022-08-19 15:24:00+00:00,235.0,6.8,236.0,7.58,14.08,47.59359,-54.27349
2022-08-19 15:34:00+00:00,228.0,6.71,227.0,8.03,14.08,47.59359,-54.27349
2022-08-19 15:44:00+00:00,227.0,5.49,222.0,6.58,14.08,47.59359,-54.27349
2022-08-19 15:54:00+00:00,248.0,10.87,252.0,14.66,14.08,47.59359,-54.27349
2022-08-19 16:04:00+00:00,233.0,6.62,232.0,7.91,14.08,47.59359,-54.27349
2022-08-19 16:14:01+00:00,238.0,7.83,233.0,8.95,14.24,47.59359,-54.27349
2022-08-19 16:24:01+00:00,237.0,6.52,238.0,7.39,14.24,47.59359,-54.27349
2022-08-19 16:34:01+00:00,237.0,8.36,237.0,9.64,14.24,47.59359,-54.27349
2022-08-19 16:44:01+00:00,236.0,8.54,240.0,9.94,14.24,47.59359,-54.27349
2022-08-19 16:54:01+00:00,251.0,8.19,257.0,10.24,14.24,47.59359,-54.27349
2022-08-19 17:04:01+00:00,240.0,9.23,248.0,13.46,14.24,47.59359,-54.27349
2022-08-19 17:14:00+00:00,259.0,12.08,259.0,13.98,14.32,47.59359,-54.27349
2022-08-19 17:24:00+00:00,243.0,8.63,244.0,9.62,14.32,47.59359,-54.27349
2022-08-19 17:34:00+00:00,254.0,9.6,254.0,10.47,14.32,47.59359,-54.27349
2022-08-19 17:44:00+00:00,248.0,10.9,247.0,14.75,14.32,47.59359,-54.27349
2022-08-19 17:54:00+00:00,222.0,8.07,222.0,8.9,14.32,47.59359,-54.27349
2022-08-19 18:04:00+00:00,216.0,7.86,214.0,9.03,14.32,47.59359,-54.27349
2022-08-19 18:14:00+00:00,211.0,10.72,216.0,11.87,13.53,47.59359,-54.27349
2022-08-19 18:24:00+00:00,212.0,9.98,209.0,11.46,13.53,47.59359,-54.27349
2022-08-19 18:34:00+00:00,212.0,10.65,211.0,11.99,13.53,47.59359,-54.27349
2022-08-19 18:44:00+00:00,210.0,10.77,212.0,12.04,13.53,47.59359,-54.27349
2022-08-19 18:54:00+00:00,209.0,10.6,207.0,11.46,13.53,47.59359,-54.27349
2022-08-19 19:04:00+00:00,212.0,10.43,217.0,11.62,13.53,47.59359,-54.27349
2022-08-19 19:14:01+00:00,212.0,11.74,212.0,12.75,13.53,47.59359,-54.27349
2022-08-19 19:24:01+00:00,213.0,10.81,216.0,12.23,13.53,47.59359,-54.27349
2022-08-19 19:34:01+00:00,212.0,10.73,213.0,11.85,13.53,47.59359,-54.27349
2022-08-19 19:44:01+00:00,213.0,10.85,213.0,11.93,13.53,47.59359,-54.27349
2022-08-19 19:54:01+00:00,214.0,10.75,214.0,11.74,13.53,47.59359,-54.27349
2022-08-19 20:04:01+00:00,214.0,9.73,215.0,10.96,13.53,47.59359,-54.27349
2022-08-19 20:14:01+00:00,213.0,11.32,213.0,12.71,13.44,47.59359,-54.27349
2022-08-19 20:24:01+00:00,212.0,11.02,210.0,12.57,13.44,47.59359,-54.27349
2022-08-19 20:34:01+00:00,211.0,10.35,211.0,11.66,13.44,47.59359,-54.27349
2022-08-19 20:44:01+00:00,213.0,11.11,216.0,12.28,13.44,47.59359,-54.27349
2022-08-19 20:54:01+00:00,213.0,11.38,214.0,12.64,13.44,47.59359,-54.27349
2022-08-19 21:04:01+00:00,212.0,11.26,210.0,12.61,13.44,47.59359,-54.27349
2022-08-19 21:14:00+00:00,214.0,11.37,215.0,13.38,13.29,47.59359,-54.27349
2022-08-19 21:24:00+00:00,216.0,11.63,219.0,13.55,13.29,47.59359,-54.27349
2022-08-19 21:34:00+00:00,216.0,10.54,221.0,12.15,13.29,47.59359,-54.27349
2022-08-19 21:44:00+00:00,214.0,11.43,212.0,13.08,13.29,47.59359,-54.27349
2022-08-19 21:54:00+00:00,216.0,11.65,217.0,12.96,13.29,47.59359,-54.27349
2022-08-19 22:04:00+00:00,214.0,9.96,212.0,10.77,13.29,47.59359,-54.27349
2022-08-19 22:14:00+00:00,219.0,9.34,218.0,10.47,12.81,47.59359,-54.27349
2022-08-19 22:24:00+00:00,234.0,8.75,237.0,10.16,12.81,47.59359,-54.27349
2022-08-19 22:34:00+00:00,224.0,7.09,228.0,9.02,12.81,47.59359,-54.27349
2022-08-19 22:44:00+00:00,226.0,8.12,225.0,10.66,12.81,47.59359,-54.27349
2022-08-19 22:54:00+00:00,218.0,7.03,218.0,7.86,12.81,47.59359,-54.27349
2022-08-19 23:04:00+00:00,232.0,8.03,230.0,9.2,12.81,47.59359,-54.27349
2022-08-19 23:14:00+00:00,229.0,8.4,230.0,10.23,12.49,47.59359,-54.27349
2022-08-19 23:24:00+00:00,232.0,8.11,238.0,9.12,12.49,47.59359,-54.27349
2022-08-19 23:34:00+00:00,232.0,8.41,231.0,9.89,12.49,47.59359,-54.27349
2022-08-19 23:44:00+00:00,231.0,7.42,228.0,9.56,12.49,47.59359,-54.27349
2022-08-19 23:54:00+00:00,232.0,7.82,234.0,9.26,12.49,47.59359,-54.27349
